LRSV Weather Reports


time (UTC)temp
C
wind
direction
speed
KPH
gust
KPH
rain 1hr
cm
rain 24hr
cm
rain mn
cm
humidity
%
barometer
mb
20260507090320 22 160 12.9 0.0 0.00 0.00 0.00 47 1014.0
20260507084820 22 160 11.3 0.0 0.00 0.00 0.00 50 1014.0
20260507083320 22 160 11.3 0.0 0.00 0.00 0.00 50 1014.0
20260507081820 21 150 11.3 0.0 0.00 0.00 0.00 50 1014.0
20260507080321 21 150 11.3 0.0 0.00 0.00 0.00 50 1014.0
20260507074821 20 160 11.3 0.0 0.00 0.00 0.00 53 1014.0
20260507073320 20 160 11.3 0.0 0.00 0.00 0.00 53 1014.0
20260507071820 17 180 9.7 0.0 0.00 0.00 0.00 60 1014.0
20260507070320 17 180 9.7 0.0 0.00 0.00 0.00 60 1014.0
20260507064820 17 180 9.7 0.0 0.00 0.00 0.00 60 1014.0
20260507063320 17 180 9.7 0.0 0.00 0.00 0.00 60 1014.0
20260507061829 16 200 16.1 0.0 0.00 0.00 0.00 63 1014.0
20260507060320 16 200 16.1 0.0 0.00 0.00 0.00 63 1014.0
20260507054820 13 200 17.7 0.0 0.00 0.00 0.00 67 1014.0
20260507053327 13 200 17.7 0.0 0.00 0.00 0.00 67 1014.0
20260507051820 12 200 17.7 0.0 0.00 0.00 0.00 72 1014.0
20260507050320 12 200 17.7 0.0 0.00 0.00 0.00 72 1014.0
20260507044817 12 200 17.7 0.0 0.00 0.00 0.00 77 1014.0
20260507043320 12 200 17.7 0.0 0.00 0.00 0.00 77 1014.0
20260507041820 11 200 20.9 0.0 0.00 0.00 0.00 82 1013.0
20260507040320 11 200 20.9 0.0 0.00 0.00 0.00 82 1013.0
20260507034817 10 210 17.7 0.0 0.00 0.00 0.00 82 1013.0
20260507033319 10 210 17.7 0.0 0.00 0.00 0.00 82 1013.0
20260507031820 11 210 20.9 0.0 0.00 0.00 0.00 77 1013.0
20260507030320 11 210 20.9 0.0 0.00 0.00 0.00 77 1013.0
20260507024820 10 210 20.9 0.0 0.00 0.00 0.00 82 1013.0
20260507023320 10 210 20.9 0.0 0.00 0.00 0.00 82 1013.0
20260507021820 11 210 16.1 0.0 0.00 0.00 0.00 77 1013.0
20260507020320 11 210 16.1 0.0 0.00 0.00 0.00 77 1013.0
20260507014820 10 190 12.9 0.0 0.00 0.00 0.00 82 1013.0
20260507013319 10 190 12.9 0.0 0.00 0.00 0.00 82 1013.0
20260507011820 10 180 12.9 0.0 0.00 0.00 0.00 82 1013.0
20260507010320 10 180 12.9 0.0 0.00 0.00 0.00 82 1013.0
20260507004820 10 180 16.1 0.0 0.00 0.00 0.00 82 1013.0
20260507003321 10 180 16.1 0.0 0.00 0.00 0.00 82 1013.0
20260507001820 12 190 16.1 0.0 0.00 0.00 0.00 72 1013.0
20260507000321 12 190 16.1 0.0 0.00 0.00 0.00 72 1013.0
20260506234820 12 180 20.9 0.0 0.00 0.00 0.00 72 1013.0
20260506233320 12 180 20.9 0.0 0.00 0.00 0.00 72 1013.0
20260506231821 12 180 17.7 0.0 0.00 0.00 0.00 72 1013.0
20260506230320 12 180 17.7 0.0 0.00 0.00 0.00 72 1013.0
20260506224816 12 180 16.1 0.0 0.00 0.00 0.00 67 1013.0
20260506223320 12 180 16.1 0.0 0.00 0.00 0.00 67 1013.0
20260506221820 13 180 16.1 0.0 0.00 0.00 0.00 63 1013.0
20260506220319 13 180 16.1 0.0 0.00 0.00 0.00 63 1013.0
20260506214836 15 180 17.7 0.0 0.00 0.00 0.00 59 1012.0
20260506213320 15 180 17.7 0.0 0.00 0.00 0.00 59 1012.0
20260506211817 15 170 17.7 0.0 0.00 0.00 0.00 59 1012.0
20260506210319 15 170 17.7 0.0 0.00 0.00 0.00 59 1012.0
20260506204821 16 170 17.7 0.0 0.00 0.00 0.00 55 1012.0
20260506203320 16 170 17.7 0.0 0.00 0.00 0.00 55 1012.0
20260506201817 17 160 20.9 0.0 0.00 0.00 0.00 52 1012.0
20260506200320 17 160 20.9 0.0 0.00 0.00 0.00 52 1012.0
20260506194839 17 160 25.7 0.0 0.00 0.00 0.00 52 1012.0
20260506193344 17 160 25.7 0.0 0.00 0.00 0.00 52 1012.0
20260506191821 17 170 29.0 0.0 0.00 0.00 0.00 46 1012.0
20260506190320 17 170 29.0 0.0 0.00 0.00 0.00 46 1012.0
20260506184825 18 170 29.0 0.0 0.00 0.00 0.00 40 1012.0
20260506183320 18 170 29.0 0.0 0.00 0.00 0.00 40 1012.0
20260506181820 18 170 25.7 0.0 0.00 0.00 0.00 40 1011.0
20260506180320 18 170 25.7 0.0 0.00 0.00 0.00 40 1011.0
20260506174820 20 160 27.4 0.0 0.00 0.00 0.00 38 1011.0
20260506173320 20 160 27.4 0.0 0.00 0.00 0.00 38 1011.0
20260506171820 21 160 27.4 0.0 0.00 0.00 0.00 35 1011.0
20260506170320 21 160 27.4 0.0 0.00 0.00 0.00 35 1011.0
20260506164820 22 160 32.2 0.0 0.00 0.00 0.00 33 1011.0
20260506163320 22 160 32.2 0.0 0.00 0.00 0.00 33 1011.0
20260506161820 22 160 29.0 0.0 0.00 0.00 0.00 29 1011.0
20260506160320 22 160 29.0 0.0 0.00 0.00 0.00 29 1011.0
20260506154821 23 170 33.8 0.0 0.00 0.00 0.00 27 1011.0
20260506153320 23 170 33.8 0.0 0.00 0.00 0.00 27 1011.0
20260506151820 25 160 32.2 0.0 0.00 0.00 0.00 28 1011.0
20260506150326 25 160 32.2 0.0 0.00 0.00 0.00 28 1011.0
20260506144820 25 160 32.2 0.0 0.00 0.00 0.00 28 1011.0
20260506143332 25 160 32.2 0.0 0.00 0.00 0.00 28 1011.0
20260506141820 25 150 33.8 0.0 0.00 0.00 0.00 28 1011.0
20260506140436 25 150 33.8 0.0 0.00 0.00 0.00 28 1011.0
20260506134845 25 140 32.2 0.0 0.00 0.00 0.00 26 1011.0
20260506133320 25 140 32.2 0.0 0.00 0.00 0.00 26 1011.0
20260506131820 26 140 29.0 0.0 0.00 0.00 0.00 26 1011.0
20260506130329 26 140 29.0 0.0 0.00 0.00 0.00 26 1011.0
20260506124821 26 140 32.2 0.0 0.00 0.00 0.00 24 1012.0
20260506123320 26 140 32.2 0.0 0.00 0.00 0.00 24 1012.0
20260506121820 26 150 29.0 0.0 0.00 0.00 0.00 23 1012.0
20260506120320 26 150 29.0 0.0 0.00 0.00 0.00 23 1012.0
20260506114820 26 150 24.1 0.0 0.00 0.00 0.00 26 1012.0
20260506113320 26 150 24.1 0.0 0.00 0.00 0.00 26 1012.0
20260506111820 26 160 22.5 0.0 0.00 0.00 0.00 23 1013.0
20260506110320 26 160 22.5 0.0 0.00 0.00 0.00 23 1013.0
20260506104820 26 150 24.1 0.0 0.00 0.00 0.00 24 1013.0
20260506103320 26 150 24.1 0.0 0.00 0.00 0.00 24 1013.0
20260506101820 25 150 27.4 0.0 0.00 0.00 0.00 26 1013.0
20260506100320 25 150 27.4 0.0 0.00 0.00 0.00 26 1013.0
20260506094820 25 170 24.1 0.0 0.00 0.00 0.00 24 1013.0
20260506093320 25 170 24.1 0.0 0.00 0.00 0.00 24 1013.0
20260506091820 23 150 17.7 0.0 0.00 0.00 0.00 34 1013.0